Regional Weather Roundup
Issued by NWS

Home | Current Version | Previous Version | Graphics & Text | Print | Product List | Glossary On
Versions: 1 2 3 4 5 6 7 8 9 10 11 12 13 14 15 16 17 18 19 20 21 22 23 24 25 26 27 28 29 30 31 32 33 34 35 36 37 38 39 40 41 42 43 44 45 46 47 48 49 50
000
ASUS43 KLOT 240110
RWRIL

ILLINOIS REGIONAL WEATHER ROUNDUP
NATIONAL WEATHER SERVICE CHICAGO/ROMEOVILLE IL
700 PM CST SUN NOV 23 2014

NOTE: "FAIR" INDICATES FEW OR NO CLOUDS BELOW 12,000 FEET WITH NO
SIGNIFICANT WEATHER AND/OR OBSTRUCTIONS TO VISIBILITY.

* THESE STATIONS ARE NOT UNDER NWS QUALITY CONTROL. THEY ALSO MAY NOT
  REPORT WEATHER SUCH AS PRECIPITATION OR FOG.

ILZ001-002-007-009-015-016-024-240200-
NORTHWEST ILLINOIS

CITY           SKY/WX    TMP DP  RH WIND       PRES   REMARKS
MOLINE         FOG       50  49  96 E6        29.26F VSB 1
STERLING*      CLOUDY    48  46  93 SE3       29.29F
SAVANNA*       DRIZZLE   50  48  93 SE6       29.28F
$$

ILZ003-004-008-010-011-017-018-240200-
NORTH CENTRAL ILLINOIS

CITY           SKY/WX    TMP DP  RH WIND       PRES   REMARKS
ROCKFORD       RAIN      49  47  93 SE7       29.32F FOG
FREEPORT*      CLOUDY    47  46  99 SE5       29.31F FOG
ROCHELLE*      RAIN      48  47  99 SE8       29.29F
DE KALB*       CLOUDY    48  47  98 SE8       29.30F
PERU*          LGT RAIN  50  49  97 SE7       29.29F
$$

ILZ005-006-012>014-019>023-240200-
NORTHEAST ILLINOIS

CITY           SKY/WX    TMP DP  RH WIND       PRES   REMARKS
CHICAGO-OHARE  LGT RAIN  50  49  96 E8        29.32F FOG
CHICAGO-MIDWAY RAIN      52  50  93 SE9G18    29.31F
AURORA         LGT RAIN  51  48  89 E8        29.30F FOG
LANSING*       RAIN      50  50  97 SE12      29.33F
JOLIET*        RAIN      49  49  97 SE8       29.30F
WAUKEGAN       LGT RAIN  46  45  96 SE9       29.32F FOG
DUPAGE AIRPORT RAIN      50  49  96 SE6       29.31F FOG
KANKAKEE*      LGT RAIN  50  49  97 E10       29.30F
WHEELING       LGT RAIN  49  48  97 E6        29.34F FOG
MORRIS*        LGT RAIN  50  50 100 E5        29.29F
ROMEOVILLE*    RAIN      50  50 100 SE8       29.30F
$$

LMZ740>746-240200-
SOUTHERN LAKE MICHIGAN

STATION/POSITION SKY/WX   TEMP    WIND        PRES    VSBY  WAVE
                          AIR SEA DIR/SP/G                  HT/PER
                          (F)     (DEG/KT/KT) (MB)    (MI)  (FT/S)
SOUTHERN BUOY              46 42  110/ 12/ 14  994.6F         2/ 3
WAUKEGAN HARBOR            44     180/  2/  5   N/A
HARRISON CRIB              47     110/ 15/ 15   N/A
BURNHAM HARBOR             44      90/  3/  8   N/A
CALUMET HARBOR             49     120/ 10/ 13  992.2F
MICHIGAN CITY              52     120/ 11/ 15   N/A
$$

ILZ025>027-034>036-040-047-049-050-058-095>099-240200-
WEST-CENTRAL ILLINOIS

CITY           SKY/WX    TMP DP  RH WIND       PRES   REMARKS
QUINCY         FOG       52  51  97 SW5       29.27F VSB 1/2
GALESBURG*     CLOUDY    49  49  99 CALM      29.27F FOG
MACOMB*        LGT RAIN  50  50 100 S3        29.29F
JACKSONVILLE*  LGT RAIN  53  51  94 S5        29.27F
PITTSFIELD*    CLOUDY    52  51  94 CALM      29.28F VSB 1
$$

ILZ028>032-037-038-041>044-048-051>054-059>061-240200-
CENTRAL ILLINOIS

CITY           SKY/WX    TMP DP  RH WIND       PRES   REMARKS
PONTIAC        RAIN      51  51  99 SE6       29.29F
BLOOMINGTON    LGT RAIN  50  50 100 S7        29.29F FOG
DECATUR        LGT RAIN  52  32  46 S7        29.28F
PEORIA         LGT RAIN  51  48  89 S6        29.28F FOG
LACON*         LGT RAIN  49  47  95 CALM      29.28F
LINCOLN*       RAIN      51  50  96 S5        29.28F
SPRINGFIELD    LGT RAIN  52  50  93 SE8       29.28F
TAYLORVILLE    LGT RAIN  50  50 100 S6        29.27F
$$

ILZ033-039-045-046-055>057-062-063-240200-
EAST-CENTRAL ILLINOIS

CITY           SKY/WX    TMP DP  RH WIND       PRES   REMARKS
CHAMPAIGN      HVY RAIN  51  51 100 SE9       29.28F FOG
DANVILLE*      RAIN      50  50  99 SE8       29.27F
RANTOUL*       HVY RAIN  52  52  98 SE8       29.28F
MATTOON        RAIN      52  51  97 SE9       29.26F
PARIS*         RAIN      52  52 100 SE8       29.29F
$$

ILZ079-100>102-240200-
SOUTHWEST ILLINOIS

CITY           SKY/WX    TMP DP  RH WIND       PRES   REMARKS
ALTON          DRIZZLE   52  50  93 CALM      29.28F
BELLEVILLE     LGT RAIN  52  52 100 S5        29.27F FOG
CAHOKIA*       LGT RAIN  53  53 100 S5        29.27F FOG
SPARTA*        DRIZZLE   52  52  99 CALM      29.30F
$$

ILZ064>066-069>071-074>076-080>082-084>086-088>090-092>094-240200-
SOUTH-CENTRAL ILLINOIS

CITY           SKY/WX    TMP DP  RH WIND       PRES   REMARKS
CARBONDALE     LGT RAIN  52  51  97 SW3       29.29S VSB 1
CAIRO*         CLOUDY    56  54  92 S3        29.31S FOG
EFFINGHAM*     CLOUDY    52  49  92 E5        29.27F
MARION         LGT RAIN  54  54 100 CALM      29.29F
MT. VERNON     CLOUDY    54  48  82 CALM      29.28F
CENTRALIA*     HVY RAIN  52  50  93 CALM      29.28F
SALEM*         RAIN      54  52  94 CALM      29.28F
METROPOLIS*    RAIN      56  56 100 SW3       29.31R
$$

ILZ067-068-072-073-078-083-087-091-240200-
SOUTHEAST ILLINOIS

CITY           SKY/WX    TMP DP  RH WIND       PRES   REMARKS
LAWRENCEVILLE  HVY RAIN  54  54 100 E7        29.27F FOG
FLORA*         LGT RAIN  52  52  99 CALM      29.27F VSB 1
FAIRFIELD*     LGT RAIN  54  54  99 CALM      29.26F
HARRISBURG*    RAIN      54  54 100 W6        29.29F
ROBINSON*      HVY RAIN  54  53  97 SE10      29.29F
CARMI*         RAIN      57  56  99 SW6       29.26S
$$

ABBREVIATIONS USED IN REMARKS
   TC - TEMPERATURE IN CELSIUS
  WCI - WIND CHILL INDEX
   HX - HEAT INDEX
  VSB - VISIBILITY
$$




USA.gov is the U.S. government's official web portal to all federal, state and local government web resources and services.